Year,Month,Day,Hour,Minute,Value (Times are PST for temperature in C)
2013,10,22,00,00,8.60
2013,10,22,00,01,8.50
2013,10,22,00,02,8.50
2013,10,22,00,03,8.50
2013,10,22,00,04,8.40
2013,10,22,00,05,8.40
2013,10,22,00,06,8.30
2013,10,22,00,07,8.30
2013,10,22,00,08,8.20
2013,10,22,00,09,8.20
2013,10,22,00,10,8.20
2013,10,22,00,11,8.10
2013,10,22,00,12,8.20
2013,10,22,00,13,8.20
2013,10,22,00,14,8.20
2013,10,22,00,15,8.30
2013,10,22,00,16,8.30
2013,10,22,00,17,8.30
2013,10,22,00,18,8.40
2013,10,22,00,19,8.40
2013,10,22,00,20,8.40
2013,10,22,00,21,8.40
2013,10,22,00,22,8.40
2013,10,22,00,23,8.40
2013,10,22,00,24,8.50
2013,10,22,00,25,8.50
2013,10,22,00,26,8.50
2013,10,22,00,27,8.60
2013,10,22,00,28,8.60
2013,10,22,00,29,8.60
2013,10,22,00,30,8.60
2013,10,22,00,31,8.60
2013,10,22,00,32,8.50
2013,10,22,00,33,8.40
2013,10,22,00,34,8.40
2013,10,22,00,35,8.30
2013,10,22,00,36,8.30
2013,10,22,00,37,8.30
2013,10,22,00,38,8.30
2013,10,22,00,39,8.30
2013,10,22,00,40,8.30
2013,10,22,00,41,8.30
2013,10,22,00,42,8.20
2013,10,22,00,43,8.20
2013,10,22,00,44,8.10
2013,10,22,00,45,8.10
2013,10,22,00,46,8.10
2013,10,22,00,47,8.10
2013,10,22,00,48,8.10
2013,10,22,00,49,8.10
2013,10,22,00,50,8.10
2013,10,22,00,51,8.00
2013,10,22,00,52,8.00
2013,10,22,00,53,8.00
2013,10,22,00,54,8.00
2013,10,22,00,55,8.00
2013,10,22,00,56,8.10
2013,10,22,00,57,8.10
2013,10,22,00,58,8.10
2013,10,22,00,59,8.20
2013,10,22,01,00,8.20
2013,10,22,01,01,8.20
2013,10,22,01,02,8.20
2013,10,22,01,03,8.20
2013,10,22,01,04,8.20
2013,10,22,01,05,8.20
2013,10,22,01,06,8.30
2013,10,22,01,07,8.30
2013,10,22,01,08,8.20
2013,10,22,01,09,8.20
2013,10,22,01,10,8.20
2013,10,22,01,11,8.20
2013,10,22,01,12,8.20
2013,10,22,01,13,8.20
2013,10,22,01,14,8.20
2013,10,22,01,15,8.10
2013,10,22,01,16,8.10
2013,10,22,01,17,8.10
2013,10,22,01,18,8.10
2013,10,22,01,19,8.10
2013,10,22,01,20,8.00
2013,10,22,01,21,8.00
2013,10,22,01,22,8.00
2013,10,22,01,23,8.00
2013,10,22,01,24,7.90
2013,10,22,01,25,7.90
2013,10,22,01,26,7.90
2013,10,22,01,27,7.90
2013,10,22,01,28,7.90
2013,10,22,01,29,7.90
2013,10,22,01,30,7.90
2013,10,22,01,31,7.90
2013,10,22,01,32,7.90
2013,10,22,01,33,7.90
2013,10,22,01,34,7.90
2013,10,22,01,35,7.90
2013,10,22,01,36,7.90
2013,10,22,01,37,7.90
2013,10,22,01,38,7.80
2013,10,22,01,39,7.80
2013,10,22,01,40,7.80
2013,10,22,01,41,7.70
2013,10,22,01,42,7.70
2013,10,22,01,43,7.70
2013,10,22,01,44,7.70
2013,10,22,01,45,7.70
2013,10,22,01,46,7.70
2013,10,22,01,47,7.70
2013,10,22,01,48,7.70
2013,10,22,01,49,7.70
2013,10,22,01,50,7.70
2013,10,22,01,51,7.70
2013,10,22,01,52,7.70
2013,10,22,01,53,7.60
2013,10,22,01,54,7.60
2013,10,22,01,55,7.60
2013,10,22,01,56,7.60
2013,10,22,01,57,7.50
2013,10,22,01,58,7.50
2013,10,22,01,59,7.60
2013,10,22,02,00,7.60
2013,10,22,02,01,7.70
2013,10,22,02,02,7.70
2013,10,22,02,03,7.80
2013,10,22,02,04,7.80
2013,10,22,02,05,7.80
2013,10,22,02,06,7.80
2013,10,22,02,07,7.80
2013,10,22,02,08,7.80
2013,10,22,02,09,7.90
2013,10,22,02,10,7.90
2013,10,22,02,11,7.90
2013,10,22,02,12,8.00
2013,10,22,02,13,8.00
2013,10,22,02,14,8.00
2013,10,22,02,15,8.00
2013,10,22,02,16,8.00
2013,10,22,02,17,8.00
2013,10,22,02,18,7.90
2013,10,22,02,19,7.90
2013,10,22,02,20,7.80
2013,10,22,02,21,7.80
2013,10,22,02,22,7.80
2013,10,22,02,23,7.80
2013,10,22,02,24,7.80
2013,10,22,02,25,7.80
2013,10,22,02,26,7.80
2013,10,22,02,27,7.80
2013,10,22,02,28,7.80
2013,10,22,02,29,7.70
2013,10,22,02,30,7.70
2013,10,22,02,31,7.70
2013,10,22,02,32,7.70
2013,10,22,02,33,7.60
2013,10,22,02,34,7.60
2013,10,22,02,35,7.60
2013,10,22,02,36,7.60
2013,10,22,02,37,7.60
2013,10,22,02,38,7.60
2013,10,22,02,39,7.50
2013,10,22,02,40,7.50
2013,10,22,02,41,7.50
2013,10,22,02,42,7.40
2013,10,22,02,43,7.40
2013,10,22,02,44,7.30
2013,10,22,02,45,7.30
2013,10,22,02,46,7.30
2013,10,22,02,47,7.30
2013,10,22,02,48,7.30
2013,10,22,02,49,7.30
2013,10,22,02,50,7.30
2013,10,22,02,51,7.30
2013,10,22,02,52,7.30
2013,10,22,02,53,7.30
2013,10,22,02,54,7.40
2013,10,22,02,55,7.40
2013,10,22,02,56,7.40
2013,10,22,02,57,7.30
2013,10,22,02,58,7.30
2013,10,22,02,59,7.30
2013,10,22,03,00,7.30
2013,10,22,03,01,7.30
2013,10,22,03,02,7.40
2013,10,22,03,03,7.40
2013,10,22,03,04,7.50
2013,10,22,03,05,7.60
2013,10,22,03,06,7.70
2013,10,22,03,07,7.70
2013,10,22,03,08,7.70
2013,10,22,03,09,7.70
2013,10,22,03,10,7.70
2013,10,22,03,11,7.60
2013,10,22,03,12,7.60
2013,10,22,03,13,7.60
2013,10,22,03,14,7.60
2013,10,22,03,15,7.60
2013,10,22,03,16,7.60
2013,10,22,03,17,7.60
2013,10,22,03,18,7.50
2013,10,22,03,19,7.40
2013,10,22,03,20,7.40
2013,10,22,03,21,7.30
2013,10,22,03,22,7.20
2013,10,22,03,23,7.20
2013,10,22,03,24,7.20
2013,10,22,03,25,7.20
2013,10,22,03,26,7.20
2013,10,22,03,27,7.20
2013,10,22,03,28,7.20
2013,10,22,03,29,7.20
2013,10,22,03,30,7.30
2013,10,22,03,31,7.30
2013,10,22,03,32,7.30
2013,10,22,03,33,7.30
2013,10,22,03,34,7.40
2013,10,22,03,35,7.40
2013,10,22,03,36,7.50
2013,10,22,03,37,7.50
2013,10,22,03,38,7.60
2013,10,22,03,39,7.60
2013,10,22,03,40,7.60
2013,10,22,03,41,7.60
2013,10,22,03,42,7.50
2013,10,22,03,43,7.40
2013,10,22,03,44,7.40
2013,10,22,03,45,7.40
2013,10,22,03,46,7.40
2013,10,22,03,47,7.40
2013,10,22,03,48,7.40
2013,10,22,03,49,7.40
2013,10,22,03,50,7.40
2013,10,22,03,51,7.40
2013,10,22,03,52,7.40
2013,10,22,03,53,7.30
2013,10,22,03,54,7.30
2013,10,22,03,55,7.30
2013,10,22,03,56,7.30
2013,10,22,03,57,7.20
2013,10,22,03,58,7.20
2013,10,22,03,59,7.20
2013,10,22,04,00,7.20
2013,10,22,04,01,7.20
2013,10,22,04,02,7.10
2013,10,22,04,03,7.10
2013,10,22,04,04,7.10
2013,10,22,04,05,7.10
2013,10,22,04,06,7.10
2013,10,22,04,07,7.10
2013,10,22,04,08,7.10
2013,10,22,04,09,7.10
2013,10,22,04,10,7.10
2013,10,22,04,11,7.10
2013,10,22,04,12,7.10
2013,10,22,04,13,7.10
2013,10,22,04,14,7.20
2013,10,22,04,15,7.20
2013,10,22,04,16,7.30
2013,10,22,04,17,7.30
2013,10,22,04,18,7.40
2013,10,22,04,19,7.40
2013,10,22,04,20,7.40
2013,10,22,04,21,7.40
2013,10,22,04,22,7.50
2013,10,22,04,23,7.50
2013,10,22,04,24,7.60
2013,10,22,04,25,7.60
2013,10,22,04,26,7.60
2013,10,22,04,27,7.60
2013,10,22,04,28,7.50
2013,10,22,04,29,7.50
2013,10,22,04,30,7.40
2013,10,22,04,31,7.40
2013,10,22,04,32,7.30
2013,10,22,04,33,7.40
2013,10,22,04,34,7.40
2013,10,22,04,35,7.40
2013,10,22,04,36,7.50
2013,10,22,04,37,7.50
2013,10,22,04,38,7.50
2013,10,22,04,39,7.50
2013,10,22,04,40,7.50
2013,10,22,04,41,7.50
2013,10,22,04,42,7.50
2013,10,22,04,43,7.60
2013,10,22,04,44,7.60
2013,10,22,04,45,7.60
2013,10,22,04,46,7.60
2013,10,22,04,47,7.60
2013,10,22,04,48,7.60
2013,10,22,04,49,7.60
2013,10,22,04,50,7.50
2013,10,22,04,51,7.50
2013,10,22,04,52,7.50
2013,10,22,04,53,7.40
2013,10,22,04,54,7.40
2013,10,22,04,55,7.40
2013,10,22,04,56,7.40
2013,10,22,04,57,7.30
2013,10,22,04,58,7.30
2013,10,22,04,59,7.30
2013,10,22,05,00,7.30
2013,10,22,05,01,7.30
2013,10,22,05,02,7.30
2013,10,22,05,03,7.30
2013,10,22,05,04,7.30
2013,10,22,05,05,7.30
2013,10,22,05,06,7.30
2013,10,22,05,07,7.30
2013,10,22,05,08,7.30
2013,10,22,05,09,7.20
2013,10,22,05,10,7.20
2013,10,22,05,11,7.20
2013,10,22,05,12,7.10
2013,10,22,05,13,7.10
2013,10,22,05,14,7.00
2013,10,22,05,15,7.00
2013,10,22,05,16,6.90
2013,10,22,05,17,6.90
2013,10,22,05,18,6.90
2013,10,22,05,19,6.90
2013,10,22,05,20,6.80
2013,10,22,05,21,6.80
2013,10,22,05,22,6.80
2013,10,22,05,23,6.70
2013,10,22,05,24,6.70
2013,10,22,05,25,6.60
2013,10,22,05,26,6.50
2013,10,22,05,27,6.50
2013,10,22,05,28,6.50
2013,10,22,05,29,6.50
2013,10,22,05,30,6.60
2013,10,22,05,31,6.60
2013,10,22,05,32,6.60
2013,10,22,05,33,6.70
2013,10,22,05,34,6.70
2013,10,22,05,35,6.70
2013,10,22,05,36,6.70
2013,10,22,05,37,6.70
2013,10,22,05,38,6.70
2013,10,22,05,39,6.70
2013,10,22,05,40,6.70
2013,10,22,05,41,6.70
2013,10,22,05,42,6.80
2013,10,22,05,43,6.80
2013,10,22,05,44,6.90
2013,10,22,05,45,6.90
2013,10,22,05,46,7.00
2013,10,22,05,47,7.00
2013,10,22,05,48,7.00
2013,10,22,05,49,7.00
2013,10,22,05,50,7.00
2013,10,22,05,51,7.00
2013,10,22,05,52,7.10
2013,10,22,05,53,7.10
2013,10,22,05,54,7.20
2013,10,22,05,55,7.20
2013,10,22,05,56,7.30
2013,10,22,05,57,7.30
2013,10,22,05,58,7.20
2013,10,22,05,59,7.10
2013,10,22,06,00,7.10
2013,10,22,06,01,7.10
2013,10,22,06,02,7.00
2013,10,22,06,03,7.00
2013,10,22,06,04,7.10
2013,10,22,06,05,7.10
2013,10,22,06,06,7.10
2013,10,22,06,07,7.20
2013,10,22,06,08,7.30
2013,10,22,06,09,7.30
2013,10,22,06,10,7.40
2013,10,22,06,11,7.50
2013,10,22,06,12,7.50
2013,10,22,06,13,7.60
2013,10,22,06,14,7.60
2013,10,22,06,15,7.60
2013,10,22,06,16,7.60
2013,10,22,06,17,7.60
2013,10,22,06,18,7.60
2013,10,22,06,19,7.60
2013,10,22,06,20,7.50
2013,10,22,06,21,7.50
2013,10,22,06,22,7.50
2013,10,22,06,23,7.50
2013,10,22,06,24,7.40
2013,10,22,06,25,7.40
2013,10,22,06,26,7.30
2013,10,22,06,27,7.30
2013,10,22,06,28,7.30
2013,10,22,06,29,7.30
2013,10,22,06,30,7.40
2013,10,22,06,31,7.30
2013,10,22,06,32,7.30
2013,10,22,06,33,7.30
2013,10,22,06,34,7.20
2013,10,22,06,35,7.20
2013,10,22,06,36,7.10
2013,10,22,06,37,7.10
2013,10,22,06,38,7.00
2013,10,22,06,39,7.00
2013,10,22,06,40,7.00
2013,10,22,06,41,7.10
2013,10,22,06,42,7.10
2013,10,22,06,43,7.10
2013,10,22,06,44,7.10
2013,10,22,06,45,7.10
2013,10,22,06,46,7.10
2013,10,22,06,47,7.10
2013,10,22,06,48,7.10
2013,10,22,06,49,7.00
2013,10,22,06,50,7.00
2013,10,22,06,51,6.90
2013,10,22,06,52,6.90
2013,10,22,06,53,6.80
2013,10,22,06,54,6.80
2013,10,22,06,55,6.80
2013,10,22,06,56,6.80
2013,10,22,06,57,6.80
2013,10,22,06,58,6.80
2013,10,22,06,59,6.80
2013,10,22,07,00,6.80
2013,10,22,07,01,6.80
2013,10,22,07,02,6.80
2013,10,22,07,03,6.80
2013,10,22,07,04,6.80
2013,10,22,07,05,6.80
2013,10,22,07,06,6.80
2013,10,22,07,07,6.80
2013,10,22,07,08,6.80
2013,10,22,07,09,6.80
2013,10,22,07,10,6.70
2013,10,22,07,11,6.70
2013,10,22,07,12,6.60
2013,10,22,07,13,6.60
2013,10,22,07,14,6.60
2013,10,22,07,15,6.60
2013,10,22,07,16,6.60
2013,10,22,07,17,6.60
2013,10,22,07,18,6.70
2013,10,22,07,19,6.70
2013,10,22,07,20,6.80
2013,10,22,07,21,6.80
2013,10,22,07,22,6.80
2013,10,22,07,23,6.90
2013,10,22,07,24,6.90
2013,10,22,07,25,7.00
2013,10,22,07,26,7.00
2013,10,22,07,27,7.10
2013,10,22,07,28,7.10
2013,10,22,07,29,7.10
2013,10,22,07,30,7.10
2013,10,22,07,31,7.10
2013,10,22,07,32,7.10
2013,10,22,07,33,7.10
2013,10,22,07,34,7.10
2013,10,22,07,35,7.10
2013,10,22,07,36,7.10
2013,10,22,07,37,7.10
2013,10,22,07,38,7.10
2013,10,22,07,39,7.10
2013,10,22,07,40,7.10
2013,10,22,07,41,7.10
2013,10,22,07,42,7.10
2013,10,22,07,43,7.00
2013,10,22,07,44,7.00
2013,10,22,07,45,7.00
2013,10,22,07,46,7.00
2013,10,22,07,47,7.00
2013,10,22,07,48,7.00
2013,10,22,07,49,7.00
2013,10,22,07,50,6.90
2013,10,22,07,51,6.90
2013,10,22,07,52,6.90
2013,10,22,07,53,6.90
2013,10,22,07,54,6.90
2013,10,22,07,55,6.80
2013,10,22,07,56,6.80
2013,10,22,07,57,6.80
2013,10,22,07,58,6.80
2013,10,22,07,59,6.80
2013,10,22,08,00,6.80
2013,10,22,08,01,6.70
2013,10,22,08,02,6.70
2013,10,22,08,03,6.70
2013,10,22,08,04,6.60
2013,10,22,08,05,6.60
2013,10,22,08,06,6.50
2013,10,22,08,07,6.50
2013,10,22,08,08,6.50
2013,10,22,08,09,6.50
2013,10,22,08,10,6.50
2013,10,22,08,11,6.50
2013,10,22,08,12,6.50
2013,10,22,08,13,6.50
2013,10,22,08,14,6.50
2013,10,22,08,15,6.50
2013,10,22,08,16,6.50
2013,10,22,08,17,6.60
2013,10,22,08,18,6.60
2013,10,22,08,19,6.60
2013,10,22,08,20,6.60
2013,10,22,08,21,6.60
2013,10,22,08,22,6.60
2013,10,22,08,23,6.60
2013,10,22,08,24,6.60
2013,10,22,08,25,6.60
2013,10,22,08,26,6.70
2013,10,22,08,27,6.70
2013,10,22,08,28,6.70
2013,10,22,08,29,6.80
2013,10,22,08,30,6.80
2013,10,22,08,31,6.80
2013,10,22,08,32,6.90
2013,10,22,08,33,6.90
2013,10,22,08,34,7.00
2013,10,22,08,35,7.00
2013,10,22,08,36,7.10
2013,10,22,08,37,7.20
2013,10,22,08,38,7.20
2013,10,22,08,39,7.20
2013,10,22,08,40,7.20
2013,10,22,08,41,7.30
2013,10,22,08,42,7.30
2013,10,22,08,43,7.30
2013,10,22,08,44,7.30
2013,10,22,08,45,7.30
2013,10,22,08,46,7.30
2013,10,22,08,47,7.30
2013,10,22,08,48,7.30
2013,10,22,08,49,7.30
2013,10,22,08,50,7.40
2013,10,22,08,51,7.50
2013,10,22,08,52,7.50
2013,10,22,08,53,7.60
2013,10,22,08,54,7.60
2013,10,22,08,55,7.70
2013,10,22,08,56,7.70
2013,10,22,08,57,7.70
2013,10,22,08,58,7.70
2013,10,22,08,59,7.80
2013,10,22,09,00,7.80
2013,10,22,09,01,7.80
2013,10,22,09,02,7.90
2013,10,22,09,03,7.90
2013,10,22,09,04,7.90
2013,10,22,09,05,7.90
2013,10,22,09,06,8.00
2013,10,22,09,07,8.00
2013,10,22,09,08,8.00
2013,10,22,09,09,8.00
2013,10,22,09,10,8.00
2013,10,22,09,11,8.00
2013,10,22,09,12,7.90
2013,10,22,09,13,7.90
2013,10,22,09,14,7.80
2013,10,22,09,15,7.80
2013,10,22,09,16,7.70
2013,10,22,09,17,7.70
2013,10,22,09,18,7.70
2013,10,22,09,19,7.60
2013,10,22,09,20,7.60
2013,10,22,09,21,7.60
2013,10,22,09,22,7.60
2013,10,22,09,23,7.60
2013,10,22,09,24,7.60
2013,10,22,09,25,7.60
2013,10,22,09,26,7.60
2013,10,22,09,27,7.60
2013,10,22,09,28,7.60
2013,10,22,09,29,7.60
2013,10,22,09,30,7.60
2013,10,22,09,31,7.60
2013,10,22,09,32,7.70
2013,10,22,09,33,7.70
2013,10,22,09,34,7.70
2013,10,22,09,35,7.70
2013,10,22,09,36,7.80
2013,10,22,09,37,7.80
2013,10,22,09,38,7.90
2013,10,22,09,39,8.00
2013,10,22,09,40,8.10
2013,10,22,09,41,8.10
2013,10,22,09,42,8.20
2013,10,22,09,43,8.30
2013,10,22,09,44,8.30
2013,10,22,09,45,8.40
2013,10,22,09,46,8.50
2013,10,22,09,47,8.50
2013,10,22,09,48,8.60
2013,10,22,09,49,8.70
2013,10,22,09,50,8.80
2013,10,22,09,51,8.80
2013,10,22,09,52,8.90
2013,10,22,09,53,9.00
2013,10,22,09,54,9.00
2013,10,22,09,55,9.00
2013,10,22,09,56,9.10
2013,10,22,09,57,9.10
2013,10,22,09,58,9.10
2013,10,22,09,59,9.10
2013,10,22,10,00,9.10
2013,10,22,10,01,9.20
2013,10,22,10,02,9.20
2013,10,22,10,03,9.20
2013,10,22,10,04,9.30
2013,10,22,10,05,9.30
2013,10,22,10,06,9.40
2013,10,22,10,07,9.40
2013,10,22,10,08,9.40
2013,10,22,10,09,9.50
2013,10,22,10,10,9.50
2013,10,22,10,11,9.60
2013,10,22,10,12,9.60
2013,10,22,10,13,9.70
2013,10,22,10,14,9.80
2013,10,22,10,15,9.80
2013,10,22,10,16,9.90
2013,10,22,10,17,10.00
2013,10,22,10,18,10.10
2013,10,22,10,19,10.10
2013,10,22,10,20,10.20
2013,10,22,10,21,10.20
2013,10,22,10,22,10.20
2013,10,22,10,23,10.20
2013,10,22,10,24,10.30
2013,10,22,10,25,10.40
2013,10,22,10,26,10.50
2013,10,22,10,27,10.60
2013,10,22,10,28,10.60
2013,10,22,10,29,10.70
2013,10,22,10,30,10.70
2013,10,22,10,31,10.80
2013,10,22,10,32,10.80
2013,10,22,10,33,10.90
2013,10,22,10,34,10.90
2013,10,22,10,35,11.00
2013,10,22,10,36,11.10
2013,10,22,10,37,11.10
2013,10,22,10,38,11.20
2013,10,22,10,39,11.20
2013,10,22,10,40,11.30
2013,10,22,10,41,11.30
2013,10,22,10,42,11.40
2013,10,22,10,43,11.50
2013,10,22,10,44,11.50
2013,10,22,10,45,11.60
2013,10,22,10,46,11.60
2013,10,22,10,47,11.60
2013,10,22,10,48,11.60
2013,10,22,10,49,11.60
2013,10,22,10,50,11.60
2013,10,22,10,51,11.60
2013,10,22,10,52,11.60
2013,10,22,10,53,11.70
2013,10,22,10,54,11.70
2013,10,22,10,55,11.70
2013,10,22,10,56,11.70
2013,10,22,10,57,11.70
2013,10,22,10,58,11.70
2013,10,22,10,59,11.70
2013,10,22,11,00,11.70
2013,10,22,11,01,11.70
2013,10,22,11,02,11.70
2013,10,22,11,03,11.70
2013,10,22,11,04,11.70
2013,10,22,11,05,11.70
2013,10,22,11,06,11.70
2013,10,22,11,07,11.80
2013,10,22,11,08,11.80
2013,10,22,11,09,11.80
2013,10,22,11,10,11.70
2013,10,22,11,11,11.70
2013,10,22,11,12,11.70
2013,10,22,11,13,11.70
2013,10,22,11,14,11.70
2013,10,22,11,15,11.70
2013,10,22,11,16,11.70
2013,10,22,11,17,11.70
2013,10,22,11,18,11.70
2013,10,22,11,19,11.60
2013,10,22,11,20,11.60
2013,10,22,11,21,11.70
2013,10,22,11,22,11.70
2013,10,22,11,23,11.80
2013,10,22,11,24,11.80
2013,10,22,11,25,11.90
2013,10,22,11,26,11.90
2013,10,22,11,27,12.00
2013,10,22,11,28,12.00
2013,10,22,11,29,12.00
2013,10,22,11,30,12.00
2013,10,22,11,31,11.90
2013,10,22,11,32,11.90
2013,10,22,11,33,11.90
2013,10,22,11,34,11.90
2013,10,22,11,35,12.00
2013,10,22,11,36,11.90
2013,10,22,11,37,11.90
2013,10,22,11,38,11.90
2013,10,22,11,39,11.90
2013,10,22,11,40,11.80
2013,10,22,11,41,11.80
2013,10,22,11,42,11.80
2013,10,22,11,43,11.80
2013,10,22,11,44,11.80
2013,10,22,11,45,11.80
2013,10,22,11,46,11.90
2013,10,22,11,47,11.90
2013,10,22,11,48,11.90
2013,10,22,11,49,11.90
2013,10,22,11,50,11.90
2013,10,22,11,51,11.90
2013,10,22,11,52,11.90
2013,10,22,11,53,12.00
2013,10,22,11,54,12.00
2013,10,22,11,55,12.10
2013,10,22,11,56,12.10
2013,10,22,11,57,12.20
2013,10,22,11,58,12.20
2013,10,22,11,59,12.30
2013,10,22,12,00,12.30
2013,10,22,12,01,12.30
2013,10,22,12,02,12.30
2013,10,22,12,03,12.30
2013,10,22,12,04,12.30
2013,10,22,12,05,12.30
2013,10,22,12,06,12.40
2013,10,22,12,07,12.40
2013,10,22,12,08,12.40
2013,10,22,12,09,12.50
2013,10,22,12,10,12.50
2013,10,22,12,11,12.60
2013,10,22,12,12,12.60
2013,10,22,12,13,12.60
2013,10,22,12,14,12.60
2013,10,22,12,15,12.60
2013,10,22,12,16,12.60
2013,10,22,12,17,12.70
2013,10,22,12,18,12.70
2013,10,22,12,19,12.80
2013,10,22,12,20,12.80
2013,10,22,12,21,12.90
2013,10,22,12,22,12.90
2013,10,22,12,23,12.90
2013,10,22,12,24,13.00
2013,10,22,12,25,13.00
2013,10,22,12,26,13.10
2013,10,22,12,27,13.10
2013,10,22,12,28,13.10
2013,10,22,12,29,13.10
2013,10,22,12,30,13.20
2013,10,22,12,31,13.20
2013,10,22,12,32,13.20
2013,10,22,12,33,13.20
2013,10,22,12,34,13.20
2013,10,22,12,35,13.20
2013,10,22,12,36,13.30
2013,10,22,12,37,13.30
2013,10,22,12,38,13.30
2013,10,22,12,39,13.40
2013,10,22,12,40,13.40
2013,10,22,12,41,13.40
2013,10,22,12,42,13.50
2013,10,22,12,43,13.60
2013,10,22,12,44,13.60
2013,10,22,12,45,13.70
2013,10,22,12,46,13.80
2013,10,22,12,47,13.80
2013,10,22,12,48,13.80
2013,10,22,12,49,13.80
2013,10,22,12,50,13.80
2013,10,22,12,51,13.90
2013,10,22,12,52,13.90
2013,10,22,12,53,13.90
2013,10,22,12,54,13.90
2013,10,22,12,55,13.90
2013,10,22,12,56,13.90
2013,10,22,12,57,13.90
2013,10,22,12,58,14.00
2013,10,22,12,59,14.00
2013,10,22,13,00,14.00
2013,10,22,13,01,14.00
2013,10,22,13,02,14.00
2013,10,22,13,03,13.90
2013,10,22,13,04,13.90
2013,10,22,13,05,13.80
2013,10,22,13,06,13.80
2013,10,22,13,07,13.80
2013,10,22,13,08,13.80
2013,10,22,13,09,13.80
2013,10,22,13,10,13.80
2013,10,22,13,11,13.90
2013,10,22,13,12,13.90
2013,10,22,13,13,13.90
2013,10,22,13,14,13.90
2013,10,22,13,15,14.00
2013,10,22,13,16,14.00
2013,10,22,13,17,14.00
2013,10,22,13,18,14.10
2013,10,22,13,19,14.10
2013,10,22,13,20,14.10
2013,10,22,13,21,14.10
2013,10,22,13,22,14.10
2013,10,22,13,23,14.10
2013,10,22,13,24,14.10
2013,10,22,13,25,14.10
2013,10,22,13,26,14.10
2013,10,22,13,27,14.10
2013,10,22,13,28,14.20
2013,10,22,13,29,14.20
2013,10,22,13,30,14.20
2013,10,22,13,31,14.30
2013,10,22,13,32,14.30
2013,10,22,13,33,14.30
2013,10,22,13,34,14.30
2013,10,22,13,35,14.40
2013,10,22,13,36,14.50
2013,10,22,13,37,14.50
2013,10,22,13,38,14.60
2013,10,22,13,39,14.60
2013,10,22,13,40,14.70
2013,10,22,13,41,14.70
2013,10,22,13,42,14.70
2013,10,22,13,43,14.70
2013,10,22,13,44,14.80
2013,10,22,13,45,14.80
2013,10,22,13,46,14.80
2013,10,22,13,47,14.80
2013,10,22,13,48,14.80
2013,10,22,13,49,14.80
2013,10,22,13,50,14.90
2013,10,22,13,51,14.90
2013,10,22,13,52,15.00
2013,10,22,13,53,15.00
2013,10,22,13,54,15.00
2013,10,22,13,55,15.00
2013,10,22,13,56,15.10
2013,10,22,13,57,15.10
2013,10,22,13,58,15.10
2013,10,22,13,59,15.20
2013,10,22,14,00,15.20
2013,10,22,14,01,15.20
2013,10,22,14,02,15.30
2013,10,22,14,03,15.30
2013,10,22,14,04,15.30
2013,10,22,14,05,15.30
2013,10,22,14,06,15.30
2013,10,22,14,07,15.30
2013,10,22,14,08,15.30
2013,10,22,14,09,15.40
2013,10,22,14,10,15.40
2013,10,22,14,11,15.40
2013,10,22,14,12,15.40
2013,10,22,14,13,15.50
2013,10,22,14,14,15.50
2013,10,22,14,15,15.60
2013,10,22,14,16,15.60
2013,10,22,14,17,15.70
2013,10,22,14,18,15.80
2013,10,22,14,19,15.80
2013,10,22,14,20,15.80
2013,10,22,14,21,15.80
2013,10,22,14,22,15.80
2013,10,22,14,23,15.90
2013,10,22,14,24,15.90
2013,10,22,14,25,15.90
2013,10,22,14,26,15.90
2013,10,22,14,27,16.00
2013,10,22,14,28,16.00
2013,10,22,14,29,16.00
2013,10,22,14,30,16.00
2013,10,22,14,31,16.00
2013,10,22,14,32,16.00
2013,10,22,14,33,16.00
2013,10,22,14,34,16.10
2013,10,22,14,35,16.10
2013,10,22,14,36,16.10
2013,10,22,14,37,16.20
2013,10,22,14,38,16.20
2013,10,22,14,39,16.20
2013,10,22,14,40,16.20
2013,10,22,14,41,16.20
2013,10,22,14,42,16.20
2013,10,22,14,43,16.30
2013,10,22,14,44,16.20
2013,10,22,14,45,16.20
2013,10,22,14,46,16.20
2013,10,22,14,47,16.20
2013,10,22,14,48,16.10
2013,10,22,14,49,16.10
2013,10,22,14,50,16.10
2013,10,22,14,51,16.10
2013,10,22,14,52,16.10
2013,10,22,14,53,16.20
2013,10,22,14,54,16.20
2013,10,22,14,55,16.20
2013,10,22,14,56,16.20
2013,10,22,14,57,16.20
2013,10,22,14,58,16.20
2013,10,22,14,59,16.20
2013,10,22,15,00,16.20
2013,10,22,15,01,16.20
2013,10,22,15,02,16.20
2013,10,22,15,03,16.20
2013,10,22,15,04,16.20
2013,10,22,15,05,16.20
2013,10,22,15,06,16.20
2013,10,22,15,07,16.20
2013,10,22,15,08,16.20
2013,10,22,15,09,16.20
2013,10,22,15,10,16.20
2013,10,22,15,11,16.20
2013,10,22,15,12,16.20
2013,10,22,15,13,16.20
2013,10,22,15,14,16.20
2013,10,22,15,15,16.20
2013,10,22,15,16,16.20
2013,10,22,15,17,16.20
2013,10,22,15,18,16.20
2013,10,22,15,19,16.10
2013,10,22,15,20,16.10
2013,10,22,15,21,16.10
2013,10,22,15,22,16.10
2013,10,22,15,23,16.20
2013,10,22,15,24,16.20
2013,10,22,15,25,16.20
2013,10,22,15,26,16.30
2013,10,22,15,27,16.30
2013,10,22,15,28,16.30
2013,10,22,15,29,16.30
2013,10,22,15,30,16.30
2013,10,22,15,31,16.30
2013,10,22,15,32,16.30
2013,10,22,15,33,16.30
2013,10,22,15,34,16.30
2013,10,22,15,35,16.30
2013,10,22,15,36,16.30
2013,10,22,15,37,16.30
2013,10,22,15,38,16.30
2013,10,22,15,39,16.30
2013,10,22,15,40,16.30
2013,10,22,15,41,16.30
2013,10,22,15,42,16.30
2013,10,22,15,43,16.30
2013,10,22,15,44,16.30
2013,10,22,15,45,16.30
2013,10,22,15,46,16.30
2013,10,22,15,47,16.30
2013,10,22,15,48,16.30
2013,10,22,15,49,16.30
2013,10,22,15,50,16.20
2013,10,22,15,51,16.20
2013,10,22,15,52,16.10
2013,10,22,15,53,16.10
2013,10,22,15,54,16.00
2013,10,22,15,55,16.00
2013,10,22,15,56,15.90
2013,10,22,15,57,15.90
2013,10,22,15,58,15.90
2013,10,22,15,59,15.90
2013,10,22,16,00,15.90
2013,10,22,16,01,15.90
2013,10,22,16,02,15.90
2013,10,22,16,03,15.90
2013,10,22,16,04,15.90
2013,10,22,16,05,15.90
2013,10,22,16,06,15.90
2013,10,22,16,07,15.80
2013,10,22,16,08,15.80
2013,10,22,16,09,15.80
2013,10,22,16,10,15.80
2013,10,22,16,11,15.80
2013,10,22,16,12,15.70
2013,10,22,16,13,15.70
2013,10,22,16,14,15.70
2013,10,22,16,15,15.70
2013,10,22,16,16,15.60
2013,10,22,16,17,15.60
2013,10,22,16,18,15.50
2013,10,22,16,19,15.50
2013,10,22,16,20,15.40
2013,10,22,16,21,15.40
2013,10,22,16,22,15.40
2013,10,22,16,23,15.40
2013,10,22,16,24,15.30
2013,10,22,16,25,15.30
2013,10,22,16,26,15.30
2013,10,22,16,27,15.30
2013,10,22,16,28,15.30
2013,10,22,16,29,15.30
2013,10,22,16,30,15.20
2013,10,22,16,31,15.20
2013,10,22,16,32,15.20
2013,10,22,16,33,15.20
2013,10,22,16,34,15.20
2013,10,22,16,35,15.20
2013,10,22,16,36,15.20
2013,10,22,16,37,15.20
2013,10,22,16,38,15.20
2013,10,22,16,39,15.20
2013,10,22,16,40,15.20
2013,10,22,16,41,15.20
2013,10,22,16,42,15.20
2013,10,22,16,43,15.20
2013,10,22,16,44,15.10
2013,10,22,16,45,15.10
2013,10,22,16,46,15.10
2013,10,22,16,47,15.10
2013,10,22,16,48,15.10
2013,10,22,16,49,15.10
2013,10,22,16,50,15.10
2013,10,22,16,51,15.10
2013,10,22,16,52,15.10
2013,10,22,16,53,15.10
2013,10,22,16,54,15.10
2013,10,22,16,55,15.10
2013,10,22,16,56,15.10
2013,10,22,16,57,15.10
2013,10,22,16,58,15.10
2013,10,22,16,59,15.10
2013,10,22,17,00,15.10
2013,10,22,17,01,15.10
2013,10,22,17,02,15.10
2013,10,22,17,03,15.10
2013,10,22,17,04,15.10
2013,10,22,17,05,15.10
2013,10,22,17,06,15.10
2013,10,22,17,07,15.10
2013,10,22,17,08,15.20
2013,10,22,17,09,15.20
2013,10,22,17,10,15.20
2013,10,22,17,11,15.20
2013,10,22,17,12,15.20
2013,10,22,17,13,15.20
2013,10,22,17,14,15.30
2013,10,22,17,15,15.30
2013,10,22,17,16,15.40
2013,10,22,17,17,15.50
2013,10,22,17,18,15.50
2013,10,22,17,19,15.60
2013,10,22,17,20,15.70
2013,10,22,17,21,15.80
2013,10,22,17,22,15.80
2013,10,22,17,23,15.80
2013,10,22,17,24,15.90
2013,10,22,17,25,15.90
2013,10,22,17,26,15.90
2013,10,22,17,27,15.90
2013,10,22,17,28,15.90
2013,10,22,17,29,15.90
2013,10,22,17,30,15.90
2013,10,22,17,31,15.90
2013,10,22,17,32,15.90
2013,10,22,17,33,15.80
2013,10,22,17,34,15.70
2013,10,22,17,35,15.60
2013,10,22,17,36,15.50
2013,10,22,17,37,15.40
2013,10,22,17,38,15.30
2013,10,22,17,39,15.20
2013,10,22,17,40,15.10
2013,10,22,17,41,15.00
2013,10,22,17,42,14.90
2013,10,22,17,43,14.90
2013,10,22,17,44,14.70
2013,10,22,17,45,14.60
2013,10,22,17,46,14.50